DW0152 Weather Reports


time (UTC)temp
C
wind
direction
speed
KPH
gust
KPH
rain 1hr
cm
rain 24hr
cm
rain mn
cm
humidity
%
barometer
mb
20260506203535 10 0 0.0 0.0 0.00 0.28 0.15 77 1012.0
20260506203045 10 0 0.0 0.0 0.00 0.28 0.15 77 1011.9
20260506202538 10 0 0.0 0.0 0.00 0.28 0.15 77 1011.9
20260506202034 10 0 0.0 0.0 0.00 0.28 0.15 77 1011.9
20260506201544 10 0 0.0 0.0 0.00 0.28 0.15 78 1011.8
20260506201035 10 0 0.0 0.0 0.00 0.28 0.15 78 1011.7
20260506200537 10 0 0.0 0.0 0.00 0.28 0.15 78 1011.8
20260506200042 10 0 0.0 0.0 0.00 0.28 0.15 77 1011.8
20260506195535 10 0 0.0 0.0 0.00 0.28 0.15 77 1011.7
20260506195034 10 0 0.0 0.0 0.00 0.28 0.15 77 1011.7
20260506194550 10 0 0.0 1.6 0.00 0.28 0.15 77 1011.7
20260506194035 10 0 0.0 1.6 0.00 0.28 0.15 77 1011.6
20260506193535 10 0 0.0 1.6 0.00 0.28 0.15 76 1011.7
20260506193045 10 0 0.0 3.2 0.00 0.28 0.15 76 1011.7
20260506192534 10 0 0.0 3.2 0.00 0.28 0.15 76 1011.6
20260506192036 10 0 0.0 1.6 0.00 0.28 0.15 75 1011.6
20260506191541 10 0 0.0 3.2 0.00 0.28 0.15 75 1011.5
20260506191034 10 0 0.0 3.2 0.00 0.28 0.15 75 1011.5
20260506190536 10 0 0.0 3.2 0.00 0.28 0.15 74 1011.3
20260506190049 10 41 0.0 3.2 0.00 0.28 0.15 74 1011.3
20260506185534 11 46 0.0 3.2 0.00 0.30 0.15 73 1011.1
20260506185034 11 0 0.0 3.2 0.00 0.30 0.15 73 1011.1
20260506184548 11 0 0.0 3.2 0.00 0.30 0.15 72 1011.1
20260506184035 11 0 0.0 3.2 0.00 0.30 0.15 72 1011.1
20260506183534 11 0 0.0 3.2 0.00 0.30 0.15 71 1011.0
20260506183055 11 0 0.0 3.2 0.00 0.30 0.15 70 1010.9
20260506182533 11 5 0.0 3.2 0.00 0.30 0.15 70 1011.0
20260506182037 11 0 0.0 3.2 0.00 0.30 0.15 69 1010.9
20260506181554 11 0 0.0 3.2 0.00 0.30 0.15 68 1010.8
20260506181037 11 0 0.0 3.2 0.00 0.30 0.15 68 1010.6
20260506180538 12 0 0.0 4.8 0.00 0.30 0.15 68 1010.6
20260506180043 12 0 0.0 4.8 0.00 0.30 0.15 67 1010.7
20260506175534 12 0 0.0 4.8 0.00 0.30 0.15 67 1010.6
20260506175034 12 13 0.0 4.8 0.00 0.30 0.15 66 1010.4
20260506174548 12 0 0.0 4.8 0.00 0.30 0.15 66 1010.2
20260506174036 12 0 0.0 3.2 0.00 0.30 0.15 65 1010.1
20260506173534 12 0 0.0 3.2 0.00 0.30 0.15 64 1010.1
20260506173049 12 0 0.0 3.2 0.00 0.30 0.15 64 1010.0
20260506172534 12 0 0.0 3.2 0.00 0.30 0.15 63 1010.1
20260506172034 12 0 0.0 4.8 0.00 0.30 0.15 63 1010.0
20260506171550 12 0 0.0 6.4 0.00 0.30 0.15 62 1009.8
20260506171035 12 0 0.0 6.4 0.00 0.30 0.15 62 1009.7
20260506170534 13 5 0.0 3.2 0.00 0.30 0.15 62 1009.7
20260506170052 13 0 0.0 3.2 0.00 0.30 0.15 62 1009.7
20260506165534 13 350 0.0 3.2 0.00 0.30 0.15 63 1009.6
20260506165037 13 348 0.0 3.2 0.00 0.30 0.15 62 1009.6
20260506164601 13 346 0.0 3.2 0.00 0.30 0.15 63 1009.5
20260506164035 13 0 0.0 4.8 0.00 0.30 0.15 64 1009.4
20260506163537 13 285 0.0 4.8 0.00 0.30 0.15 65 1009.5
20260506163056 13 0 0.0 3.2 0.00 0.30 0.15 65 1009.4
20260506162537 13 0 0.0 3.2 0.00 0.30 0.15 65 1009.4
20260506162034 13 0 0.0 3.2 0.00 0.30 0.15 66 1009.4
20260506161546 13 0 0.0 3.2 0.00 0.30 0.15 66 1009.4
20260506161034 13 0 0.0 4.8 0.00 0.30 0.15 65 1009.3
20260506160534 13 0 0.0 4.8 0.00 0.30 0.15 65 1009.2
20260506160056 13 5 0.0 4.8 0.00 0.30 0.15 64 1009.3
20260506155534 13 32 0.0 4.8 0.00 0.33 0.15 64 1009.1
20260506155034 14 0 0.0 4.8 0.00 0.33 0.15 64 1009.2
20260506154552 14 53 0.0 3.2 0.00 0.33 0.15 64 1009.1
20260506154037 14 0 0.0 3.2 0.00 0.33 0.15 64 1009.2
20260506153534 14 0 0.0 1.6 0.00 0.33 0.15 63 1009.2
20260506153048 14 0 0.0 3.2 0.00 0.33 0.15 64 1009.2
20260506152533 14 0 0.0 4.8 0.00 0.33 0.15 63 1009.1
20260506152036 14 0 0.0 4.8 0.00 0.33 0.15 62 1009.1
20260506151553 14 340 0.0 3.2 0.00 0.33 0.15 62 1009.1
20260506151033 14 0 0.0 3.2 0.00 0.33 0.15 63 1009.0
20260506150533 14 0 0.0 3.2 0.00 0.33 0.15 63 1009.0
20260506150100 14 0 0.0 3.2 0.00 0.33 0.15 62 1009.0
20260506145554 14 0 0.0 1.6 0.00 0.33 0.15 62 1009.0
20260506145035 14 53 0.0 3.2 0.00 0.33 0.15 62 1009.0
20260506144541 14 0 0.0 3.2 0.00 0.33 0.15 63 1009.0
20260506144035 14 58 0.0 3.2 0.00 0.33 0.15 63 1008.9
20260506143534 14 0 0.0 3.2 0.00 0.33 0.15 63 1008.8
20260506143043 14 0 0.0 3.2 0.00 0.33 0.15 62 1008.8
20260506142533 14 0 0.0 3.2 0.00 0.33 0.15 62 1008.9
20260506142035 14 19 0.0 3.2 0.00 0.33 0.15 63 1008.8
20260506141544 14 0 0.0 3.2 0.00 0.33 0.15 63 1008.9
20260506141037 15 0 0.0 3.2 0.00 0.33 0.15 63 1008.8
20260506140535 15 0 0.0 3.2 0.00 0.33 0.15 63 1008.8
20260506140041 15 0 0.0 4.8 0.00 0.33 0.15 63 1008.9
20260506135536 15 0 0.0 4.8 0.00 0.33 0.15 65 1009.0
20260506135036 15 0 0.0 3.2 0.00 0.33 0.15 67 1009.1
20260506134551 14 0 0.0 3.2 0.00 0.33 0.15 66 1009.1
20260506134036 14 38 0.0 3.2 0.00 0.33 0.15 67 1009.0
20260506133535 14 0 0.0 3.2 0.00 0.33 0.15 67 1009.1
20260506133101 14 34 0.0 3.2 0.00 0.33 0.15 67 1009.1
20260506132534 13 0 0.0 3.2 0.00 0.33 0.15 67 1009.1
20260506132034 13 0 0.0 1.6 0.00 0.33 0.15 68 1009.1
20260506131547 13 0 0.0 3.2 0.00 0.33 0.15 68 1009.0
20260506131034 13 0 0.0 3.2 0.00 0.33 0.15 68 1009.1
20260506130536 13 0 0.0 3.2 0.00 0.33 0.15 70 1009.1
20260506130043 13 0 0.0 3.2 0.00 0.33 0.15 70 1009.1
20260506125533 13 0 0.0 3.2 0.00 0.33 0.15 71 1009.1
20260506125033 13 0 0.0 3.2 0.00 0.33 0.15 72 1009.1
20260506124541 13 0 0.0 3.2 0.00 0.33 0.15 73 1009.0
20260506124033 13 0 0.0 1.6 0.00 0.33 0.15 73 1009.0
20260506123535 13 0 0.0 1.6 0.00 0.33 0.15 73 1009.0
20260506123043 13 0 0.0 3.2 0.00 0.33 0.15 73 1009.0
20260506122534 13 0 0.0 3.2 0.00 0.33 0.15 73 1009.0
20260506122038 13 0 0.0 4.8 0.00 0.33 0.15 73 1008.9
20260506121553 13 0 0.0 4.8 0.00 0.33 0.15 74 1009.1
20260506121034 13 22 0.0 4.8 0.00 0.33 0.15 76 1009.0
20260506120534 13 0 0.0 3.2 0.00 0.33 0.15 77 1008.9
20260506120057 12 0 0.0 3.2 0.00 0.33 0.15 77 1009.0
20260506115533 12 0 0.0 4.8 0.00 0.33 0.15 77 1009.0
20260506115033 12 0 0.0 4.8 0.00 0.33 0.15 77 1009.0
20260506114541 12 296 0.0 3.2 0.00 0.33 0.15 78 1009.0
20260506114035 12 0 0.0 3.2 0.00 0.33 0.15 79 1009.0
20260506113535 12 24 0.0 3.2 0.00 0.33 0.15 80 1008.9
20260506113044 12 0 0.0 4.8 0.00 0.33 0.15 80 1009.0
20260506112536 12 15 0.0 4.8 0.00 0.33 0.15 81 1008.9
20260506112034 12 0 0.0 4.8 0.00 0.33 0.15 82 1008.9
20260506111546 12 22 0.0 3.2 0.00 0.33 0.15 84 1008.8
20260506111033 12 0 0.0 3.2 0.00 0.33 0.15 85 1008.9
20260506110534 12 0 0.0 3.2 0.00 0.33 0.15 87 1008.9
20260506110048 12 0 0.0 1.6 0.00 0.33 0.15 89 1008.9
20260506105535 12 0 0.0 3.2 0.00 0.33 0.15 90 1008.9
20260506105033 12 0 0.0 3.2 0.00 0.33 0.15 90 1008.8
20260506104558 12 0 0.0 4.8 0.00 0.33 0.15 92 1009.0
20260506104032 12 0 0.0 4.8 0.00 0.33 0.15 92 1009.1
20260506103534 11 0 0.0 3.2 0.00 0.33 0.15 92 1009.0
20260506103047 11 19 0.0 3.2 0.00 0.33 0.15 93 1008.9
20260506102533 11 46 0.0 3.2 0.00 0.33 0.15 93 1008.9
20260506102034 11 360 0.0 1.6 0.00 0.33 0.15 94 1008.9
20260506101543 11 0 0.0 3.2 0.00 0.33 0.15 94 1008.9
20260506101033 11 0 0.0 3.2 0.00 0.33 0.15 94 1009.0
20260506100533 11 0 0.0 3.2 0.00 0.33 0.15 94 1009.1
20260506100051 11 0 0.0 3.2 0.00 0.33 0.15 94 1008.9
20260506095535 11 0 0.0 3.2 0.00 0.33 0.15 94 1009.0
20260506095035 11 0 0.0 3.2 0.00 0.33 0.15 94 1009.0
20260506094542 11 0 0.0 1.6 0.00 0.33 0.15 95 1009.0
20260506094033 10 0 0.0 1.6 0.00 0.33 0.15 95 1008.9
20260506093534 10 0 0.0 3.2 0.00 0.33 0.15 95 1008.9
20260506093039 10 0 0.0 6.4 0.00 0.33 0.15 95 1008.8
20260506092534 10 0 0.0 6.4 0.00 0.33 0.15 95 1008.7
20260506092036 10 0 0.0 1.6 0.00 0.33 0.15 95 1008.8
20260506091546 10 0 0.0 6.4 0.00 0.33 0.15 95 1008.9
20260506091033 10 0 0.0 6.4 0.00 0.33 0.15 95 1008.9
20260506090533 10 0 0.0 3.2 0.00 0.33 0.15 95 1008.8
20260506090043 10 0 0.0 3.2 0.00 0.33 0.15 95 1008.7
20260506085533 10 0 0.0 3.2 0.00 0.33 0.15 95 1008.6
20260506085034 10 0 0.0 3.2 0.00 0.33 0.15 95 1008.7
20260506084616 10 0 0.0 1.6 0.00 0.33 0.15 95 1008.6
20260506084034 10 11 0.0 3.2 0.00 0.33 0.15 95 1008.5
20260506083532 9 0 0.0 3.2 0.00 0.33 0.15 95 1008.6
20260506083043 9 0 0.0 3.2 0.00 0.33 0.15 95 1008.4
20260506082535 9 0 0.0 3.2 0.00 0.33 0.15 95 1008.5
20260506082034 9 0 0.0 3.2 0.00 0.33 0.15 95 1008.5
20260506081555 9 0 0.0 3.2 0.00 0.33 0.15 95 1008.4
20260506081034 8 0 0.0 1.6 0.00 0.33 0.15 95 1008.3
20260506080535 8 0 0.0 1.6 0.00 0.33 0.15 94 1008.5
20260506073050 8 0 0.0 3.2 0.00 0.33 0.15 94 1008.3
20260506072535 8 0 0.0 3.2 0.00 0.33 0.15 94 1008.2
20260506072035 8 0 0.0 3.2 0.00 0.33 0.15 94 1008.3
20260506071543 8 277 0.0 3.2 0.00 0.33 0.15 94 1008.3
20260506071034 8 0 0.0 3.2 0.00 0.33 0.15 94 1008.2
20260506070534 8 0 0.0 3.2 0.00 0.33 0.15 94 1008.2
20260506062035 8 0 0.0 3.2 0.00 0.30 0.13 94 1008.1
20260506061543 8 0 0.0 3.2 0.00 0.30 0.13 94 1008.0
20260506061035 8 0 0.0 3.2 0.00 0.30 0.13 94 1008.2
20260506060534 8 0 0.0 3.2 0.00 0.30 0.13 94 1008.1
20260506051031 8 0 0.0 4.8 0.00 0.30 0.13 94 1007.9
20260506050534 8 0 0.0 1.6 0.00 0.30 0.13 94 1007.9
20260506045036 8 0 0.0 1.6 0.00 0.30 0.13 94 1007.9
20260506044543 8 0 0.0 1.6 0.00 0.30 0.13 94 1007.8
20260506044035 8 0 0.0 1.6 0.00 0.30 0.13 94 1007.9
20260506043534 8 0 0.0 1.6 0.00 0.30 0.13 94 1007.8
20260506043044 8 0 0.0 1.6 0.00 0.30 0.13 94 1007.8
20260506042535 8 0 0.0 1.6 0.00 0.30 0.13 94 1008.0
20260506042035 8 0 0.0 1.6 0.00 0.30 0.13 94 1007.8
20260506041556 8 0 0.0 1.6 0.00 0.30 0.13 94 1007.8
20260506041031 8 0 0.0 1.6 0.00 0.30 0.13 94 1007.8
20260506040535 8 0 0.0 1.6 0.00 0.30 0.13 94 1007.9
20260506040042 8 0 0.0 1.6 0.00 0.30 0.13 94 1007.9
20260506035535 8 0 0.0 1.6 0.00 0.38 0.13 94 1007.9
20260506035034 8 0 0.0 1.6 0.00 0.38 0.13 94 1007.8
20260506034545 8 0 0.0 1.6 0.00 0.38 0.13 94 1007.9
20260506034034 8 0 0.0 1.6 0.00 0.38 0.13 94 1007.9
20260506033533 8 0 0.0 1.6 0.00 0.38 0.13 94 1008.0
20260506033044 8 0 0.0 1.6 0.00 0.38 0.13 94 1007.9
20260506032535 8 267 0.0 1.6 0.00 0.38 0.13 94 1007.9
20260506032037 8 0 0.0 1.6 0.00 0.38 0.13 94 1007.9
20260506031545 8 0 0.0 1.6 0.00 0.38 0.13 94 1008.0
20260506031034 8 0 0.0 0.0 0.00 0.38 0.13 94 1008.0
20260506030537 8 0 0.0 0.0 0.00 0.38 0.13 94 1008.0
20260506030044 8 0 0.0 0.0 0.00 0.38 0.13 94 1008.0
20260506025535 8 0 0.0 0.0 0.00 0.38 0.13 94 1008.1
20260506025035 8 0 0.0 0.0 0.00 0.36 0.10 94 1008.0
20260506024542 8 0 0.0 1.6 0.00 0.36 0.10 94 1008.1
20260506024034 8 0 0.0 1.6 0.00 0.36 0.10 94 1008.2
20260506023535 8 0 0.0 3.2 0.00 0.36 0.10 94 1008.1
20260506023102 8 0 0.0 3.2 0.00 0.36 0.10 94 1008.2
20260506022535 8 0 0.0 1.6 0.00 0.36 0.10 94 1008.2
20260506022034 8 0 0.0 3.2 0.00 0.36 0.10 94 1008.2
20260506021606 8 0 0.0 3.2 0.00 0.36 0.10 94 1008.3
20260506021035 8 0 0.0 3.2 0.00 0.36 0.10 94 1008.1
20260506020534 8 0 0.0 1.6 0.00 0.36 0.10 94 1008.1
20260506020041 8 0 0.0 3.2 0.00 0.36 0.10 94 1008.2
20260506015531 8 0 0.0 3.2 0.00 0.36 0.10 94 1008.3
20260506015038 8 0 0.0 3.2 0.00 0.36 0.10 94 1008.3
20260506014545 8 304 0.0 1.6 0.00 0.36 0.10 94 1008.2
20260506014034 8 0 0.0 1.6 0.00 0.36 0.10 94 1008.2
20260506013536 8 304 0.0 0.0 0.00 0.36 0.10 94 1008.3
20260506013058 8 0 0.0 1.6 0.00 0.36 0.10 94 1008.3
20260506012535 8 0 0.0 1.6 0.00 0.36 0.10 94 1008.5
20260506012034 8 0 0.0 1.6 0.00 0.36 0.10 94 1008.3
20260506011604 8 0 0.0 1.6 0.00 0.36 0.10 94 1008.3
20260506011034 8 0 0.0 0.0 0.00 0.36 0.10 94 1008.3
20260506010534 8 0 0.0 0.0 0.00 0.36 0.08 94 1008.3
20260506010055 8 0 0.0 1.6 0.00 0.36 0.08 94 1008.4
20260506005536 8 0 0.0 1.6 0.00 0.36 0.08 94 1008.4
20260506005035 8 0 0.0 1.6 0.00 0.36 0.08 94 1008.4
20260506004543 8 0 0.0 1.6 0.00 0.36 0.08 94 1008.5
20260506004034 8 0 0.0 1.6 0.00 0.36 0.08 94 1008.5
20260506003534 8 0 0.0 0.0 0.00 0.36 0.08 94 1008.6
20260506003049 8 0 0.0 0.0 0.00 0.36 0.08 94 1008.6
20260506002533 8 0 0.0 1.6 0.00 0.36 0.08 94 1008.7
20260506002034 8 0 0.0 1.6 0.00 0.36 0.08 94 1008.7
20260506001542 8 0 0.0 1.6 0.00 0.36 0.08 94 1008.7
20260506001034 8 0 0.0 3.2 0.00 0.36 0.08 94 1008.8
20260506000535 8 0 0.0 3.2 0.03 0.36 0.08 94 1008.7
20260506000045 8 0 0.0 1.6 0.00 0.33 0.08 94 1008.8
20260505235535 8 0 0.0 1.6 0.00 0.38 0.08 94 1008.9
20260505235035 8 0 0.0 1.6 0.00 0.38 0.08 94 1008.9
20260505234540 9 0 0.0 1.6 0.00 0.38 0.08 94 1008.9
20260505234036 9 0 0.0 1.6 0.00 0.38 0.08 94 1008.8
20260505233534 9 0 0.0 1.6 0.00 0.38 0.08 94 1008.8
20260505233037 9 0 0.0 1.6 0.03 0.38 0.08 94 1008.9
20260505232535 9 0 0.0 1.6 0.03 0.38 0.08 94 1008.9
20260505232034 9 0 0.0 0.0 0.05 0.38 0.08 94 1008.9
20260505231603 9 0 0.0 0.0 0.05 0.38 0.08 94 1008.8
20260505231033 9 0 0.0 0.0 0.08 0.38 0.08 94 1008.9
20260505230533 9 0 0.0 1.6 0.05 0.36 0.05 94 1009.0
20260505230041 9 0 0.0 1.6 0.05 0.36 0.05 94 1009.0
20260505225534 9 0 0.0 1.6 0.08 0.61 0.05 94 1009.1
20260505225035 9 0 0.0 1.6 0.08 0.61 0.05 94 1009.1
20260505224542 9 0 0.0 1.6 0.08 0.61 0.05 94 1009.1
20260505224033 9 0 0.0 3.2 0.08 0.61 0.05 94 1009.1
20260505223533 9 0 0.0 3.2 0.08 0.61 0.05 94 1009.1
20260505223048 9 0 0.0 3.2 0.08 0.58 0.03 94 1009.1
20260505222533 10 0 0.0 3.2 0.08 0.58 0.03 94 1009.2
20260505222034 10 0 0.0 3.2 0.08 0.56 0.00 94 1009.1
20260505221543 10 345 0.0 3.2 0.08 0.56 0.00 94 1009.2
20260505221034 10 0 0.0 3.2 0.08 0.56 0.00 94 1009.3
20260505220534 10 0 0.0 3.2 0.08 0.56 0.00 94 1009.2
20260505220051 10 217 0.0 1.6 0.08 0.56 0.00 94 1009.3
20260505215534 10 0 0.0 1.6 0.08 0.64 0.53 94 1009.3
20260505215034 10 0 0.0 0.0 0.08 0.64 0.53 94 1009.2
20260505214554 10 0 0.0 0.0 0.05 0.64 0.51 94 1009.3
20260505214034 10 0 0.0 0.0 0.08 0.64 0.51 94 1009.4
20260505213533 10 0 0.0 0.0 0.08 0.64 0.51 94 1009.2
20260505213044 10 0 0.0 0.0 0.05 0.61 0.48 94 1009.3
20260505212534 10 0 0.0 0.0 0.05 0.61 0.48 94 1009.4
20260505212033 10 0 0.0 0.0 0.05 0.61 0.48 94 1009.3
20260505211543 10 0 0.0 0.0 0.03 0.58 0.46 94 1009.4
20260505211032 10 0 0.0 0.0 0.03 0.58 0.46 94 1009.3
20260505210532 10 0 0.0 0.0 0.03 0.58 0.46 94 1009.4
20260505210045 10 0 0.0 0.0 0.00 0.56 0.46 94 1009.5
20260505205532 10 0 0.0 0.0 0.00 0.61 0.46 94 1009.3
20260505205031 10 0 0.0 0.0 0.00 0.61 0.46 94 1009.4
20260505204548 10 0 0.0 0.0 0.00 0.61 0.46 94 1009.5
20260505204032 10 0 0.0 0.0 0.00 0.58 0.43 94 1009.4